Location: Heiligenberg
(48.5381°N, 7.3897°E)
Time: 20:10:08
(UTC+00:00)

Cosmos 2237 Rocket - Pass Details

Date: 26 May 2022
Orbit: 834 x 851 km, 71.0° (Epoch: 02 July)

Event Time Altitude Azimuth Distance (km) Brightness Sun altitude
Exits shadow 01:11:49 24° 229° (SW) 1,689 3.2 -16.6°
Maximum altitude 01:15:14 61° 302° (WNW) 963 2.5 -16.3°
Drops below altitude 10° 01:20:54 10° 23° (NNE) 2,487 6.0 -15.9°
Sets 01:23:24 0° 27° (NNE) 3,427 7.3 -15.7°
